DLH83C EDDM-LYTV

Flight info

Callsign DLH83C
Flight time 1h 19m
Altitude 33000
Route VAVOR3E/08R VAVOR M867 RADIZ DCT GIMIX/N0449F370 DCT SABAD DCT NERRA DCT DBK DCT TAZ
Aircraft A320/M-SDE3FGHIRWY/LB1

Departure

Time 2026-05-01 12:19
Airport Munich Airport (EDDM)

Arrival

Time 2026-05-01 13:38
Airport Tivat Airport (LYTV)
Time Latitude Longitude Altitude Speed Heading
2026-05-01 10:44 48.35062 11.79356 1467 ft 0 kts 263°
2026-05-01 12:03 48.35064 11.79383 1460 ft 3 kts 264°
2026-05-01 12:03 48.35066 11.79414 1463 ft 3 kts 266°
2026-05-01 12:03 48.35066 11.79446 1463 ft 3 kts 270°
2026-05-01 12:03 48.35066 11.79478 1463 ft 3 kts 278°
2026-05-01 12:04 48.35064 11.79491 1462 ft 0 kts 285°
2026-05-01 12:04 48.35061 11.79518 1465 ft 0 kts 98°
2026-05-01 12:04 48.35059 11.79515 1462 ft 0 kts 164°
2026-05-01 12:09 48.35035 11.79525 1467 ft 7 kts 165°
2026-05-01 12:09 48.34968 11.79539 1459 ft 7 kts 173°
2026-05-01 12:09 48.34941 11.79543 1467 ft 3 kts 173°
2026-05-01 12:09 48.34927 11.79546 1467 ft 0 kts 173°
2026-05-01 12:10 48.34926 11.79546 1467 ft 2 kts 173°
2026-05-01 12:10 48.34885 11.79553 1466 ft 2 kts 173°
2026-05-01 12:10 48.34853 11.79559 1459 ft 7 kts 173°
2026-05-01 12:11 48.34776 11.79385 1466 ft 16 kts 263°
2026-05-01 12:11 48.34762 11.79207 1467 ft 19 kts 263°
2026-05-01 12:11 48.34746 11.78992 1467 ft 21 kts 263°
2026-05-01 12:12 48.34730 11.78786 1467 ft 19 kts 263°
2026-05-01 12:12 48.34716 11.78598 1465 ft 17 kts 263°
2026-05-01 12:12 48.34703 11.78426 1464 ft 16 kts 263°
2026-05-01 12:12 48.34691 11.78269 1464 ft 14 kts 263°
2026-05-01 12:13 48.34680 11.78127 1461 ft 13 kts 263°
2026-05-01 12:13 48.34670 11.77997 1466 ft 12 kts 263°
2026-05-01 12:13 48.34660 11.77882 1466 ft 10 kts 263°
2026-05-01 12:13 48.34652 11.77771 1457 ft 13 kts 263°
2026-05-01 12:14 48.34640 11.77601 1466 ft 20 kts 263°
2026-05-01 12:14 48.34621 11.77365 1462 ft 23 kts 263°
2026-05-01 12:14 48.34604 11.77134 1466 ft 21 kts 263°
2026-05-01 12:14 48.34587 11.76921 1466 ft 20 kts 263°
2026-05-01 12:15 48.34572 11.76725 1466 ft 18 kts 263°
2026-05-01 12:15 48.34559 11.76550 1466 ft 16 kts 263°
2026-05-01 12:15 48.34543 11.76348 1465 ft 24 kts 263°
2026-05-01 12:15 48.34523 11.76080 1456 ft 25 kts 264°
2026-05-01 12:16 48.34506 11.75852 1457 ft 21 kts 263°
2026-05-01 12:16 48.34488 11.75645 1466 ft 19 kts 262°
2026-05-01 12:16 48.34473 11.75455 1466 ft 18 kts 263°
2026-05-01 12:16 48.34459 11.75285 1466 ft 14 kts 261°
2026-05-01 12:17 48.34392 11.75213 1462 ft 13 kts 184°
2026-05-01 12:17 48.34295 11.75229 1458 ft 15 kts 172°
2026-05-01 12:17 48.34193 11.75247 1467 ft 15 kts 173°
2026-05-01 12:17 48.34112 11.75272 1467 ft 7 kts 155°
2026-05-01 12:18 48.34085 11.75340 1471 ft 10 kts 83°
2026-05-01 12:18 48.34087 11.75364 1474 ft 0 kts 83°
2026-05-01 12:18 48.34106 11.75623 1461 ft 62 kts 84°
2026-05-01 12:18 48.34179 11.76597 1463 ft 123 kts 83°
2026-05-01 12:19 48.34290 11.78121 1538 ft 163 kts 84°
2026-05-01 12:19 48.34421 11.79827 2223 ft 163 kts 84°
2026-05-01 12:19 48.34547 11.81535 2985 ft 167 kts 85°
2026-05-01 12:19 48.34681 11.83375 3364 ft 188 kts 86°
2026-05-01 12:20 48.34833 11.85437 3721 ft 210 kts 85°
2026-05-01 12:20 48.35001 11.87677 4385 ft 221 kts 85°
2026-05-01 12:20 48.35179 11.90000 5231 ft 227 kts 85°
2026-05-01 12:20 48.35362 11.92381 6004 ft 232 kts 85°
2026-05-01 12:21 48.35229 11.94810 6825 ft 236 kts 108°
2026-05-01 12:21 48.34372 11.96925 7582 ft 245 kts 134°
2026-05-01 12:21 48.33030 11.98550 8391 ft 250 kts 140°
2026-05-01 12:21 48.31644 12.00160 9204 ft 253 kts 139°
2026-05-01 12:22 48.30177 12.01675 10005 ft 261 kts 150°
2026-05-01 12:22 48.28433 12.02564 10655 ft 276 kts 167°
2026-05-01 12:22 48.26427 12.02654 11041 ft 296 kts 180°
2026-05-01 12:22 48.24344 12.02508 11703 ft 303 kts 179°
2026-05-01 12:23 48.22221 12.02372 12444 ft 307 kts 179°
2026-05-01 12:23 48.20073 12.02240 13165 ft 312 kts 179°
2026-05-01 12:23 48.17890 12.02109 13884 ft 316 kts 179°
2026-05-01 12:23 48.15650 12.02078 14552 ft 318 kts 171°
2026-05-01 12:24 48.13481 12.02689 15189 ft 318 kts 158°
2026-05-01 12:24 48.11431 12.03912 15815 ft 318 kts 151°
2026-05-01 12:24 48.09393 12.05236 16485 ft 321 kts 151°
2026-05-01 12:24 48.07332 12.06565 17131 ft 324 kts 151°
2026-05-01 12:25 48.05251 12.07899 17792 ft 327 kts 151°
2026-05-01 12:25 48.01029 12.10604 19039 ft 333 kts 150°
2026-05-01 12:25 47.98891 12.11971 19597 ft 336 kts 150°
2026-05-01 12:26 47.96724 12.13350 20138 ft 340 kts 150°
2026-05-01 12:26 47.92527 12.16577 21114 ft 342 kts 136°
2026-05-01 12:26 47.90662 12.18887 21235 ft 356 kts 133°
2026-05-01 12:27 47.88742 12.21333 21357 ft 371 kts 134°
2026-05-01 12:27 47.84666 12.26500 21779 ft 396 kts 134°
2026-05-01 12:28 47.80400 12.31837 22733 ft 404 kts 134°
2026-05-01 12:28 47.78233 12.34530 23208 ft 407 kts 134°
2026-05-01 12:28 47.73853 12.39976 24107 ft 414 kts 134°
2026-05-01 12:29 47.71637 12.42738 24471 ft 417 kts 134°
2026-05-01 12:29 47.69374 12.45554 24853 ft 420 kts 134°
2026-05-01 12:29 47.64853 12.51144 25589 ft 426 kts 134°
2026-05-01 12:30 47.60240 12.56666 26281 ft 433 kts 137°
2026-05-01 12:30 47.57783 12.59381 26621 ft 437 kts 138°
2026-05-01 12:30 47.55312 12.62022 27001 ft 440 kts 139°
2026-05-01 12:31 47.52814 12.64661 27310 ft 441 kts 139°
2026-05-01 12:31 47.50308 12.67318 27594 ft 444 kts 138°
2026-05-01 12:31 47.47810 12.69996 27910 ft 446 kts 137°
2026-05-01 12:31 47.45295 12.72715 28190 ft 448 kts 137°
2026-05-01 12:32 47.42778 12.75448 28484 ft 450 kts 137°
2026-05-01 12:32 47.37703 12.80960 29105 ft 455 kts 137°
2026-05-01 12:32 47.35141 12.83733 29372 ft 457 kts 137°
2026-05-01 12:33 47.32574 12.86502 29611 ft 459 kts 137°
2026-05-01 12:33 47.29990 12.89285 29883 ft 461 kts 137°
2026-05-01 12:33 47.27394 12.92080 30137 ft 463 kts 137°
2026-05-01 12:33 47.24780 12.94886 30402 ft 465 kts 137°
2026-05-01 12:34 47.22164 12.97687 30625 ft 467 kts 137°
2026-05-01 12:34 47.19529 13.00504 30841 ft 468 kts 137°
2026-05-01 12:34 47.16892 13.03322 31068 ft 468 kts 137°
2026-05-01 12:34 47.14260 13.06135 31353 ft 468 kts 137°
2026-05-01 12:35 47.11588 13.08985 31620 ft 468 kts 137°
2026-05-01 12:35 47.09002 13.11742 31880 ft 468 kts 137°
2026-05-01 12:35 47.06322 13.14598 32186 ft 468 kts 137°
2026-05-01 12:35 47.03691 13.17401 32511 ft 468 kts 137°
2026-05-01 12:36 47.01056 13.20205 32760 ft 467 kts 136°
2026-05-01 12:36 46.98427 13.22995 33019 ft 467 kts 136°
2026-05-01 12:36 46.96687 13.24840 33226 ft 467 kts 136°
2026-05-01 12:36 46.94060 13.27625 33488 ft 466 kts 136°
2026-05-01 12:37 46.91438 13.30401 33724 ft 466 kts 136°
2026-05-01 12:37 46.88798 13.33190 33923 ft 467 kts 136°
2026-05-01 12:37 46.86167 13.35968 34115 ft 467 kts 136°
2026-05-01 12:37 46.83502 13.38782 34331 ft 467 kts 136°
2026-05-01 12:38 46.80867 13.41560 34577 ft 467 kts 136°
2026-05-01 12:38 46.78238 13.44324 34880 ft 466 kts 136°
2026-05-01 12:38 46.75602 13.47087 35178 ft 466 kts 136°
2026-05-01 12:38 46.72965 13.49847 35374 ft 465 kts 136°
2026-05-01 12:39 46.70338 13.52593 35612 ft 465 kts 136°
2026-05-01 12:39 46.67713 13.55336 35871 ft 464 kts 136°
2026-05-01 12:39 46.65094 13.58076 36109 ft 464 kts 136°
2026-05-01 12:39 46.62463 13.60828 36301 ft 464 kts 137°
2026-05-01 12:40 46.59840 13.63566 36475 ft 463 kts 137°
2026-05-01 12:40 46.57226 13.66288 36612 ft 463 kts 137°
2026-05-01 12:40 46.54604 13.69013 36760 ft 464 kts 137°
2026-05-01 12:40 46.51973 13.71746 36931 ft 464 kts 137°
2026-05-01 12:41 46.49371 13.74518 37069 ft 463 kts 136°
2026-05-01 12:41 46.46806 13.77352 37239 ft 463 kts 135°
2026-05-01 12:41 46.44270 13.80222 37419 ft 463 kts 135°
2026-05-01 12:41 46.41746 13.83102 37405 ft 463 kts 135°
2026-05-01 12:42 46.36662 13.88848 37395 ft 463 kts 135°
2026-05-01 12:42 46.31547 13.94520 37401 ft 464 kts 136°
2026-05-01 12:43 46.26413 14.00175 37388 ft 464 kts 136°
2026-05-01 12:43 46.21251 14.05864 37390 ft 464 kts 136°
2026-05-01 12:44 46.16124 14.11512 37425 ft 464 kts 136°
2026-05-01 12:45 46.05852 14.22781 37419 ft 464 kts 136°
2026-05-01 12:45 46.00704 14.28403 37415 ft 464 kts 136°
2026-05-01 12:46 45.95564 14.34005 37407 ft 464 kts 136°
2026-05-01 12:46 45.90419 14.39605 37433 ft 464 kts 136°
2026-05-01 12:47 45.85276 14.45191 37419 ft 464 kts 136°
2026-05-01 12:47 45.80124 14.50768 37416 ft 464 kts 137°
2026-05-01 12:48 45.74966 14.56330 37415 ft 464 kts 136°
2026-05-01 12:48 45.69816 14.61887 37415 ft 464 kts 136°
2026-05-01 12:49 45.64619 14.67470 37434 ft 465 kts 137°
2026-05-01 12:49 45.59437 14.73010 37428 ft 465 kts 137°
2026-05-01 12:50 45.54253 14.78559 37413 ft 466 kts 137°
2026-05-01 12:50 45.49062 14.84111 37400 ft 466 kts 137°
2026-05-01 12:51 45.43878 14.89664 37403 ft 466 kts 137°
2026-05-01 12:52 45.36192 14.98168 37413 ft 467 kts 137°
2026-05-01 12:52 45.28500 15.06686 37410 ft 468 kts 137°
2026-05-01 12:53 45.20727 15.15179 37418 ft 469 kts 137°
2026-05-01 12:54 45.15544 15.20810 37417 ft 469 kts 137°
2026-05-01 12:54 45.07772 15.29266 37426 ft 470 kts 137°
2026-05-01 12:55 44.99987 15.37711 37411 ft 470 kts 137°
2026-05-01 12:56 44.94786 15.43329 37424 ft 471 kts 137°
2026-05-01 12:56 44.89581 15.48949 37418 ft 471 kts 137°
2026-05-01 12:57 44.84368 15.54561 37399 ft 472 kts 138°
2026-05-01 12:57 44.76536 15.62960 37390 ft 472 kts 138°
2026-05-01 12:58 44.71315 15.68547 37381 ft 472 kts 138°
2026-05-01 12:59 44.63456 15.76909 37383 ft 472 kts 139°
2026-05-01 12:59 44.55568 15.85294 37368 ft 472 kts 139°
2026-05-01 13:00 44.47720 15.93619 37356 ft 472 kts 139°
2026-05-01 13:01 44.39856 16.01921 37334 ft 472 kts 140°
2026-05-01 13:02 44.31980 16.10219 37330 ft 473 kts 140°
2026-05-01 13:07 43.77125 16.67124 36774 ft 478 kts 140°
2026-05-01 13:07 43.74455 16.69864 36290 ft 477 kts 141°
2026-05-01 13:07 43.71792 16.72589 35777 ft 477 kts 141°
2026-05-01 13:08 43.69127 16.75309 35253 ft 476 kts 141°
2026-05-01 13:08 43.66470 16.78020 34748 ft 475 kts 141°
2026-05-01 13:08 43.63806 16.80739 34237 ft 475 kts 141°
2026-05-01 13:08 43.61148 16.83448 33599 ft 475 kts 141°
2026-05-01 13:09 43.58491 16.86150 32950 ft 474 kts 141°
2026-05-01 13:09 43.55840 16.88844 32322 ft 474 kts 141°
2026-05-01 13:09 43.53187 16.91540 31716 ft 472 kts 141°
2026-05-01 13:09 43.50519 16.94252 31112 ft 469 kts 141°
2026-05-01 13:10 43.47934 16.96874 30536 ft 466 kts 142°
2026-05-01 13:10 43.45336 16.99500 29876 ft 461 kts 141°
2026-05-01 13:10 43.42728 17.02134 29174 ft 456 kts 141°
2026-05-01 13:10 43.40183 17.04699 28502 ft 450 kts 141°
2026-05-01 13:11 43.37670 17.07233 27860 ft 445 kts 141°
2026-05-01 13:11 43.35196 17.09724 27208 ft 437 kts 141°
2026-05-01 13:11 43.32757 17.12178 26556 ft 432 kts 141°
2026-05-01 13:11 43.30347 17.14601 25920 ft 427 kts 142°
2026-05-01 13:12 43.27965 17.17000 25322 ft 423 kts 141°
2026-05-01 13:12 43.25601 17.19378 24757 ft 419 kts 141°
2026-05-01 13:12 43.23262 17.21727 24210 ft 415 kts 141°
2026-05-01 13:12 43.20933 17.24065 23624 ft 414 kts 142°
2026-05-01 13:13 43.18621 17.26385 22988 ft 410 kts 142°
2026-05-01 13:13 43.16325 17.28683 22361 ft 408 kts 141°
2026-05-01 13:13 43.14054 17.30950 21740 ft 399 kts 141°
2026-05-01 13:13 43.11825 17.33169 21103 ft 394 kts 142°
2026-05-01 13:14 43.09617 17.35366 20490 ft 391 kts 141°
2026-05-01 13:14 43.07426 17.37547 19888 ft 388 kts 142°
2026-05-01 13:14 43.05252 17.39707 19294 ft 385 kts 142°
2026-05-01 13:14 43.03097 17.41849 18764 ft 382 kts 141°
2026-05-01 13:15 43.00948 17.43983 18484 ft 381 kts 141°
2026-05-01 13:15 42.98774 17.46142 18150 ft 379 kts 141°
2026-05-01 13:15 42.96646 17.48254 17817 ft 378 kts 141°
2026-05-01 13:15 42.94518 17.50361 17483 ft 377 kts 141°
2026-05-01 13:16 42.92455 17.52540 17164 ft 373 kts 135°
2026-05-01 13:16 42.90605 17.54993 16848 ft 369 kts 129°
2026-05-01 13:16 42.88987 17.57692 16539 ft 366 kts 122°
2026-05-01 13:17 42.84896 17.66330 15476 ft 360 kts 119°
2026-05-01 13:17 42.83544 17.69203 15222 ft 359 kts 120°
2026-05-01 13:18 42.80855 17.74895 14773 ft 356 kts 120°
2026-05-01 13:18 42.79518 17.77729 14579 ft 355 kts 120°
2026-05-01 13:18 42.78192 17.80543 14367 ft 353 kts 120°
2026-05-01 13:18 42.76865 17.83355 14153 ft 352 kts 120°
2026-05-01 13:19 42.75546 17.86144 13926 ft 350 kts 120°
2026-05-01 13:19 42.74230 17.88924 13668 ft 349 kts 120°
2026-05-01 13:19 42.71657 17.94360 13195 ft 346 kts 120°
2026-05-01 13:20 42.70356 17.97110 12958 ft 345 kts 120°
2026-05-01 13:20 42.69058 17.99845 12701 ft 344 kts 120°
2026-05-01 13:20 42.67761 18.02566 12479 ft 343 kts 120°
2026-05-01 13:21 42.65181 18.07983 12005 ft 340 kts 120°
2026-05-01 13:21 42.63880 18.10715 11771 ft 339 kts 120°
2026-05-01 13:21 42.62605 18.13392 11539 ft 338 kts 120°
2026-05-01 13:21 42.61330 18.16065 11316 ft 336 kts 120°
2026-05-01 13:22 42.60058 18.18722 11091 ft 335 kts 120°
2026-05-01 13:22 42.58787 18.21371 10866 ft 334 kts 120°
2026-05-01 13:22 42.57523 18.24005 10645 ft 333 kts 120°
2026-05-01 13:22 42.56255 18.26630 10421 ft 332 kts 121°
2026-05-01 13:23 42.54950 18.29215 10222 ft 330 kts 122°
2026-05-01 13:23 42.53651 18.31697 10029 ft 319 kts 122°
2026-05-01 13:23 42.52373 18.34105 9801 ft 309 kts 122°
2026-05-01 13:23 42.51138 18.36428 9597 ft 300 kts 122°
2026-05-01 13:24 42.49948 18.38678 9370 ft 287 kts 122°
2026-05-01 13:24 42.48800 18.40859 9160 ft 283 kts 122°
2026-05-01 13:24 42.47665 18.43024 9044 ft 281 kts 122°
2026-05-01 13:25 42.45413 18.47330 9048 ft 281 kts 123°
2026-05-01 13:25 42.44284 18.49487 9029 ft 281 kts 122°
2026-05-01 13:25 42.43156 18.51643 9039 ft 280 kts 123°
2026-05-01 13:25 42.42029 18.53791 9033 ft 280 kts 123°
2026-05-01 13:26 42.40899 18.55942 9033 ft 280 kts 123°
2026-05-01 13:26 42.39771 18.58092 9041 ft 280 kts 123°
2026-05-01 13:26 42.38645 18.60237 9038 ft 280 kts 123°
2026-05-01 13:26 42.37519 18.62379 9032 ft 280 kts 123°
2026-05-01 13:27 42.36376 18.64549 9039 ft 279 kts 123°
2026-05-01 13:27 42.35262 18.66660 9040 ft 280 kts 123°
2026-05-01 13:27 42.32999 18.70939 9035 ft 280 kts 123°
2026-05-01 13:28 42.30723 18.75230 9033 ft 279 kts 123°
2026-05-01 13:28 42.29592 18.77371 9026 ft 279 kts 123°
2026-05-01 13:29 42.27560 18.81767 9031 ft 274 kts 111°
2026-05-01 13:29 42.25905 18.86372 9026 ft 274 kts 111°
2026-05-01 13:30 42.22466 18.95783 7942 ft 271 kts 117°
2026-05-01 13:31 42.19696 18.98436 7693 ft 240 kts 172°
2026-05-01 13:31 42.15637 18.95073 6409 ft 252 kts 248°
2026-05-01 13:32 42.15486 18.90465 5669 ft 248 kts 284°
2026-05-01 13:33 42.18246 18.85177 4660 ft 229 kts 342°
2026-05-01 13:33 42.21200 18.83665 4059 ft 226 kts 342°
2026-05-01 13:34 42.24094 18.82170 3600 ft 213 kts 342°
2026-05-01 13:34 42.26682 18.80820 2944 ft 191 kts 342°
2026-05-01 13:35 42.29031 18.79599 2439 ft 172 kts 342°
2026-05-01 13:35 42.30121 18.79036 2192 ft 165 kts 343°
2026-05-01 13:35 42.32210 18.77967 1736 ft 157 kts 342°
2026-05-01 13:36 42.33244 18.77588 1556 ft 149 kts 349°
2026-05-01 13:36 42.34233 18.77256 1411 ft 145 kts 347°
2026-05-01 13:36 42.35856 18.76637 1020 ft 142 kts 345°
2026-05-01 13:37 42.37063 18.76001 682 ft 138 kts 332°
2026-05-01 13:37 42.37606 18.75522 540 ft 138 kts 325°
2026-05-01 13:37 42.38615 18.74493 316 ft 135 kts 320°
2026-05-01 13:37 42.39094 18.73935 172 ft 133 kts 320°
2026-05-01 13:38 42.40355 18.72456 22 ft 85 kts 319°
2026-05-01 13:38 42.40730 18.72021 19 ft 62 kts 319°
2026-05-01 13:38 42.40917 18.71806 20 ft 15 kts 334°
2026-05-01 13:39 42.40988 18.71845 21 ft 10 kts 47°
2026-05-01 13:39 42.41025 18.71852 19 ft 4 kts 315°
2026-05-01 13:39 42.41046 18.71825 19 ft 4 kts 317°
2026-05-01 13:39 42.41065 18.71803 19 ft 4 kts 319°
2026-05-01 13:40 42.41101 18.71761 18 ft 10 kts 319°
2026-05-01 13:40 42.41154 18.71698 18 ft 9 kts 319°
2026-05-01 13:40 42.41209 18.71657 18 ft 8 kts 19°
2026-05-01 13:40 42.41221 18.71709 18 ft 5 kts 129°
2026-05-01 13:41 42.41207 18.71712 19 ft 0 kts 181°